Location: Marcé
(47.5801°N, 0.3280°W)
Time: 13:06:42
(UTC+01:00)

ISS - Pass Details

Date: 30 October 2021
Orbit: 417 x 422 km, 51.6° (Epoch: 07 December)

Event Time Altitude Azimuth Distance (km) Brightness Sun altitude
Exits shadow 05:40:34 13° 67° (ENE) 1,339 -0.4 -31.0°
Drops below altitude 10° 05:40:58 10° 67° (ENE) 1,502 -0.1 -30.9°
Sets 05:43:04 0° 66° (ENE) 2,367 1.2 -30.6°
